Probability
0 0 0 0 0 0 0 0 0 0 0 0 0 0 0 0 0 0 0 0 0 0 0 0 0 0 0 0 0 0 0 0 0 0 0 0 0 0 0 0 0 0 0 0
0 0 0 0 0 0 0 0 0 0 0 0 0 0 0 0 0 0 0 0 0 0 0 0 0 0 0 0 0 0 0 0 0 0 0 0 0 0 0 0 0 0 0 0
0 0 0 0 0 0 0 0 0 0 0 0 0 0 0 0 0 0 0 0 0 0 0 0 0 0 0 0 0 0 0 0 0 0 0 0 0 0 0 0 0 0 0 0
0 0 0 0 0 0 0 0 0 0 0 0 0 0 0 0 0 0 0 0 0 0 0 0 0 0 0 0 0 0 0 0 0 0 0 0 0 0 0 0 0 0 0 0
0 0 0 0 0 0 0 0 0 0 0 0 0 0 0 0 0 0 0 0 0 0 0 0 0 0 0 0 0 0 0 0 0 0 0 0 0 0 0 0 0 0 0 0
0 0 0 0 0 0 0 0 0 0 0 0 0 0 0 0 0 0 0 0 0 0 0 0 0 0 0 0 0 0 0 0 0 0 0 0 0 0 0 0 0 0 0 0
0 0 0 0 0 0 0 0 0 0 0 0 0 0 0 0 0 0 0 0 0 0 0 0 0 0 0 0 0 0 0 0 0 0 0 0 0 0 0 0 0 0 0 0
0 0 0 0 0 0 0 0 0 0 0 0 0 0 0 0 0 0 0 0 0 0 0 0 0 0 0 0 0 0 0 0 0 0 0 0 0 0 0 0 0 0 0 0
0 0 0 0 0 0 0 0 0 0 0 0 0 0 0 0 0 0 0 0 0 0 0 0 0 0 0 0 0 0 0 0 0 0 0 0 0 0 0 0 0 0 0 0
0 0 0 0 0 0 0 0 0 0 0 0 0 0 0 0 0 0 0 0 0 0 0 0 0 0 0 0 0 0 0 0 0 0 0 0 0 0 0 0 0 0 0 0
0 0 0 0 0 0 0 0 0 0 0 0 0 0 0 0 0 0 0 0 0 0 0 0 0 0 0 0 0 0 0 0 0 0 0 0 0 0 0 0 0 0 0 0
0 0 0 0 0 0 0 0 0 0 0 0 0 0 0 0 0 0 0 0 0 0 0 0 0 0 0 0 0 0 0 0 0 0 0 0 0 0 0 0 0 0 0 0
0 0 0 0 0 0 0 0 0 0 0 0 0 0 0 0 0 0 0 0 0 0 0 0 0 0 0 0 0 0 0 0 0 0 0 0 0 0 0 0 0 0 0 0
0 0 0 0 0 0 0 0 0 0 0 0 0 0 0 0 0 0 0 0 0 0 0 0 0 0 0 0 0 0 0 0 0 0 0 0 0 0 0 0 0 0 0 0
0 0 0 0 0 0 0 0 0 0 0 0 0 0 0 0 0 0 0 0 0 0 0 0 0 0 0 0 0 0 0 0 0 0 0 0 0 0 0 0 0 0 0 0
0 0 0 0 0 0 0 0 0 0 0 0 0 0 0 0 0 0 0 0 0 0 0 0 0 0 0 0 0 0 0 0 0 0 0 0 0 0 0 0 0 0 0 0
0 0 0 0 0 0 0 0 0 0 0 0 0 0 0 0 0 0 0 0 0 0 0 0 0 0 0 0 0 0 0 0 0 0 0 0 0 0 0 0 0 0 0 0
0 0 0 0 0 0 0 0 0 0 0 0 0 0 0 0 0 0 0 0 0 0 0 0 0 0 0 0 0 0 0 0 0 0 0 0 0 0 0 0 0 0 0 0
0 0 0 0 0 0 0 0 0 0 0 0 0 0 0 0 0 0 0 0 0 0 0 0 0 0 0 0 0 0 0 0 0 0 0 0 0 0 0 0 0 0 0 0
0 0 0 0 0 0 0 0 0 0 0 0 0 0 0 0 0 0 0 0 0 0 0 0 0 0 0 0 0 0 0 0 0 0 0 0 0 0 0 0 0 0 0 0
0 0 0 0 0 0 0 0 0 0 0 0 0 0 0 0 0 0 0 0 0 0 0 0 0 0 0 0 0 0 0 0 0 0 0 0 0 0 0 0 0 0 0 0
0 0 0 0 0 0 0 0 0 0 0 0 0 0 0 0 0 0 0 0 0 0 0 0 0 0 0 0 0 0 0 0 0 0 0 0 0 0 0 0 0 0 0 0
0 0 0 0 0 0 0 0 0 0 0 0 0 0 0 0 0 0 0 0 0 0 0 0 0 0 0 0 0 0 0 0 0 0 0 0 0 0 0 0 0 0 0 0
0 0 0 0 0 0 0 0 0 0 0 0 0 0 0 0 0 0 0 0 0 0 0 0 0 0 0 0 0 0 0 0 0 0 0 0 0 0 0 0 0 0 0 0
0 0 0 0 0 0 0 0 0 0 0 0 0 0 0 0 0 0 0 0 0 0 0 0 0 0 0 0 0 0 0 0 0 0 0 0 0 0 0 0 0 0 0 0
0 0 0 0 0 0 0 0 0 0 0 0 0 0 0 0 0 0 0 0 0 0 0 0 0 0 0 0 0 0 0 0 0 0 0 0 0 0 0 0 0 0 0 0
0 0 0 0 0 0 0 0 0 0 0 0 0 0 0 0 0 0 0 0 0 0 0 0 0 0 0 0 0 0 0 0 0 0 0 0 0 0 0 0 0 0 0 0
Wind_Speed
11 10 9 10 12 12 14 14 14 14 15 14 10 8 7 6 6 6 6 6 6 7 6 5 5 5 5 5 5 5 6 6 7 6 6 5 5 5 6 6 7 7 7 7
9 7 7 11 14 14 15 15 17 18 18 11 9 6 6 6 6 7 7 7 7 7 7 7 6 6 5 5 5 5 6 6 6 5 5 5 5 5 6 6 6 7 7 8
7 4 6 12 11 12 10 10 11 15 12 6 6 6 7 7 7 8 8 8 8 8 7 7 6 6 6 5 5 5 6 6 5 5 5 5 5 5 6 6 6 7 8 8
5 4 10 4 1 4 8 9 9 10 9 7 7 8 8 7 7 7 7 8 8 7 7 7 6 5 5 5 5 5 5 5 5 5 5 5 5 6 6 6 6 7 7 8
4 7 10 5 1 1 5 8 7 9 9 8 6 6 6 3 5 7 8 7 7 7 6 6 5 4 4 5 5 4 5 5 5 5 5 5 6 6 5 5 6 6 6 7
5 7 9 3 1 2 3 7 2 4 7 6 5 6 5 5 7 8 7 6 6 5 5 5 5 4 4 4 4 4 4 4 4 4 5 5 6 5 5 5 5 5 6 6
9 9 9 2 1 1 4 4 3 4 5 5 6 6 7 8 8 8 7 7 6 5 4 5 4 3 3 4 4 4 4 3 3 4 4 5 4 4 4 4 4 5 5 5
6 7 7 2 1 3 4 4 4 5 6 6 7 7 8 8 8 8 7 6 5 5 5 4 3 3 3 4 4 3 3 3 3 3 3 3 3 3 4 4 4 4 4 4
6 5 3 1 3 4 4 5 5 6 6 6 7 7 8 7 7 7 7 6 5 4 4 4 2 2 3 3 3 2 3 2 2 2 2 3 3 3 3 3 3 3 3 3
5 6 5 4 5 5 6 6 7 6 7 6 7 7 7 7 7 7 6 6 4 4 4 4 3 2 3 3 2 2 2 2 2 2 2 2 2 2 3 3 3 3 3 3
6 6 6 5 6 6 7 6 6 6 6 6 6 7 6 6 6 6 6 5 4 3 3 4 3 3 2 2 1 1 2 2 2 2 2 2 2 2 3 3 4 4 3 4
6 5 5 6 5 5 6 6 6 6 6 6 5 6 6 6 6 5 5 5 4 4 4 4 3 3 2 2 1 1 1 1 1 1 1 1 1 2 3 4 5 6 7 6
6 6 6 7 6 5 5 6 6 6 6 7 6 5 5 5 5 5 5 4 4 4 4 4 4 3 3 2 1 1 2 2 1 1 1 1 1 2 2 3 4 5 6 7
5 5 6 6 6 6 5 6 5 5 5 6 6 5 5 4 5 5 5 4 4 4 4 4 4 4 3 3 1 1 1 2 2 1 1 2 2 2 2 2 3 3 4 6
7 6 6 6 6 5 5 4 5 5 6 6 5 5 4 5 5 5 5 4 3 3 3 4 4 4 3 2 2 2 1 1 1 2 1 1 2 2 2 3 3 3 3 4
7 5 4 4 5 5 5 5 5 6 6 6 5 5 5 4 5 5 5 4 3 4 4 4 4 4 4 3 2 2 1 2 3 2 1 2 2 2 2 2 3 3 3 3
5 5 5 6 6 6 5 5 5 5 6 6 6 5 5 5 5 5 5 5 4 4 4 4 4 4 3 3 2 2 2 2 3 2 2 2 2 2 2 3 3 3 3 4
5 5 5 5 5 5 5 5 5 5 5 5 5 4 4 4 5 6 6 5 5 4 4 4 4 4 3 3 2 2 2 2 2 2 2 2 2 2 3 3 3 4 3 4
6 5 5 5 4 4 4 5 5 5 5 4 4 4 4 4 5 5 5 5 4 5 5 5 5 4 3 3 4 2 2 2 2 2 2 3 3 3 3 3 3 4 4 4
7 6 6 6 5 4 4 5 5 5 4 4 4 4 5 5 5 5 5 4 4 4 5 5 4 3 3 3 4 2 2 2 2 2 2 2 3 3 3 3 4 4 4 4
7 7 6 6 5 5 5 5 5 5 5 4 4 4 5 5 5 4 4 5 5 5 5 6 4 3 3 3 3 2 2 2 2 3 3 3 3 3 4 4 4 4 4 4
6 6 6 5 5 5 5 4 4 5 5 4 4 4 4 5 5 4 4 4 5 7 5 4 3 4 5 4 2 2 3 3 3 3 3 3 3 4 4 4 4 4 4 4
6 6 6 5 5 6 6 5 4 4 5 5 5 5 5 5 4 4 4 4 4 6 5 4 5 7 7 3 2 2 3 3 3 3 3 3 4 4 4 4 4 4 4 4
6 6 6 5 5 5 6 6 5 4 5 5 4 4 4 4 4 3 4 6 8 7 5 6 8 8 6 3 3 3 3 3 3 3 4 3 4 4 4 4 4 4 4 5
6 6 5 5 5 4 5 5 5 5 5 4 5 5 4 3 4 4 4 5 7 7 5 6 8 7 4 3 3 3 3 3 4 4 3 4 4 4 4 4 4 4 4 5
5 5 5 5 5 4 4 4 4 4 4 5 4 4 4 3 4 4 3 4 5 6 5 4 4 5 3 3 3 4 4 4 5 4 4 4 5 5 5 5 6 5 5 5
5 5 4 4 4 4 4 4 4 5 4 4 5 5 4 4 4 4 4 4 4 4 4 4 3 3 3 4 4 4 4 4 4 4 4 4 4 4 5 6 5 5 5 5
Wind_Direction
268 277 268 257 248 231 228 239 251 263 263 271 280 286 288 289 294 295 297 299 298 297 292 282 276 269 262 260 258 245 240 239 242 243 241 240 238 238 238 237 231 233 235 234
271 266 266 266 256 242 242 246 252 265 270 276 282 285 283 285 288 292 296 299 300 298 295 289 281 274 266 262 258 245 238 239 239 239 238 238 240 241 241 241 234 232 235 235
266 281 280 260 243 228 229 231 238 252 266 286 287 290 295 296 291 288 292 299 300 297 291 287 282 278 274 270 264 247 238 237 236 235 237 239 240 241 243 245 240 235 236 236
270 270 248 268 46 225 236 249 245 256 271 280 286 296 290 285 286 292 295 297 297 297 293 288 284 278 271 265 258 245 238 238 238 236 238 239 239 241 244 244 241 235 236 238
245 260 272 276 231 220 247 269 250 250 270 288 305 293 281 288 300 298 296 294 293 292 290 286 280 272 263 259 254 247 240 241 241 238 236 236 238 242 244 246 247 242 238 238
235 254 263 293 54 340 262 263 244 257 274 288 295 283 301 332 319 307 304 301 297 295 289 282 278 269 257 257 254 251 250 248 245 240 237 239 241 243 248 247 249 254 245 241
236 248 266 348 6 254 244 305 335 286 282 283 275 282 308 316 311 308 307 305 302 297 287 279 275 262 254 259 261 264 264 256 247 243 243 242 243 244 244 247 249 253 252 249
218 236 257 56 142 227 285 322 307 298 294 290 288 293 299 304 307 309 311 309 307 299 292 285 269 252 254 264 272 273 263 258 249 247 247 243 241 245 244 245 248 252 252 253
215 240 321 230 252 283 306 297 301 297 299 294 293 295 300 303 305 308 310 310 308 298 297 299 281 258 256 269 276 271 263 263 253 252 253 248 243 243 242 243 247 254 257 255
254 265 289 292 298 306 307 301 305 307 305 300 293 296 303 306 309 313 314 313 311 307 305 307 304 289 268 273 268 259 260 265 250 241 245 250 251 245 245 244 250 257 260 266
262 288 305 291 297 305 311 312 313 315 312 306 301 301 303 305 308 310 313 315 318 315 311 310 310 300 296 287 266 260 268 267 260 254 256 260 270 271 269 266 268 270 270 271
274 283 272 290 307 310 308 310 311 313 315 315 307 302 306 308 310 312 315 321 328 331 328 325 325 325 322 318 281 261 279 288 278 269 271 277 290 310 304 292 295 291 289 288
282 303 296 297 304 309 306 310 313 312 308 310 314 310 311 313 318 322 324 329 331 331 332 329 331 328 324 323 310 288 286 291 283 277 276 280 287 293 312 325 317 309 307 307
299 303 297 300 304 316 316 315 318 319 316 314 316 321 322 322 325 328 327 329 330 331 331 331 330 324 321 322 318 305 294 289 294 289 290 288 288 292 296 305 316 324 328 324
324 312 294 307 315 320 323 321 323 322 324 327 327 328 329 326 325 324 327 333 335 337 333 333 330 324 327 328 319 309 304 304 313 311 300 296 292 294 298 299 303 311 320 327
327 329 322 315 315 321 325 324 319 317 324 324 326 329 327 322 321 324 332 338 337 330 327 328 325 324 329 329 328 321 314 314 319 309 303 300 298 297 297 298 299 299 304 315
334 332 332 329 325 323 320 315 312 314 320 322 322 324 328 332 335 336 338 338 330 319 318 320 320 324 329 331 322 320 321 314 312 315 307 303 304 299 296 295 296 298 302 309
319 312 308 304 308 317 322 324 323 321 316 315 318 323 328 330 327 326 328 330 331 331 331 330 326 329 334 333 325 319 312 308 307 311 308 305 307 302 299 298 299 299 304 310
342 339 335 329 322 319 320 322 323 320 318 320 322 322 320 317 317 320 323 329 329 325 327 331 330 333 331 330 332 322 310 308 309 306 304 306 307 303 301 300 302 305 307 308
348 349 347 342 340 334 326 324 323 323 323 322 322 323 326 326 324 322 322 318 313 312 316 321 325 323 322 321 325 319 313 304 301 302 302 300 300 302 303 304 304 304 303 303
342 341 342 342 340 337 330 323 321 321 324 326 322 317 316 318 320 319 317 317 322 322 318 319 324 322 319 320 316 313 309 307 302 298 297 298 299 301 303 305 304 303 304 304
334 335 336 335 335 332 331 326 322 319 323 323 319 316 317 318 319 314 303 300 316 325 326 321 321 322 324 322 317 315 310 307 304 304 302 301 300 300 301 304 303 303 303 301
329 329 329 329 327 323 325 328 326 321 319 317 315 313 310 308 309 310 314 321 321 322 324 320 322 324 327 332 328 321 316 312 308 306 305 303 301 299 300 302 301 300 300 300
329 328 326 325 325 325 326 327 326 320 314 310 309 306 305 306 307 300 300 315 325 324 323 324 328 330 331 334 324 317 312 309 307 305 304 302 299 299 299 299 298 298 298 299
328 326 328 328 327 322 319 322 325 325 323 322 322 315 306 298 299 308 313 316 320 324 324 327 331 333 336 328 322 316 312 308 308 306 302 301 300 300 298 297 296 297 297 297
327 324 322 320 317 317 318 319 321 323 324 322 321 320 319 316 309 308 312 317 319 322 325 323 325 328 329 323 317 313 310 310 310 309 306 303 300 299 299 299 298 295 294 295
328 327 325 327 331 330 324 320 317 319 319 314 312 318 323 323 323 326 324 323 323 324 325 325 324 324 323 320 316 313 310 308 306 304 304 301 297 296 297 296 295 295 297 298